Tracking 31027 objects as of 19-Jul-2025
HD Live streaming from Space Station
objects crossing your sky now

ONEWEB-0039

Track ONEWEB-0039 now!
10-day predictions
ONEWEB-0039 is classified as:


NORAD ID: 45146
Int'l Code: 2020-008R
Perigee: 1,227.6 km
Apogee: 1,230.5 km
Inclination: 87.9 °
Period: 109.9 minutes
Semi major axis: 7600 km
RCS: Unknown
Launch date: February 6, 2020
Source: United Kingdom (UK)
Launch site: TYURATAM MISSILE AND SPACE COMPLEX (TTMTR)
Your satellite tracking list
GEOTAIL
Track 1 satellite(s)




NASA's NSSDC Master Catalog

Two Line Element Set (TLE):
1 45146U 20008R   25199.45027332 -.00000603  00000-0 -17654-2 0  9998
2 45146  87.8829 102.8170 0001877  91.0293 269.1050 13.10320951264459
Source of the keplerian elements: AFSPC